Dixon, WY

4:44 PM MST on February 05, 2016 (GMT -0700)
Dixon AP, Dixon, WY

Weather History for KDWX - February, 2014

Change the Weather History Date:

Monday, February 24, 2014

  Actual Average (KCAG) Record (KCAG)
Temperature  
Mean Temperature 42 °F 24 °F  
Max Temperature 52 °F 37 °F 52 °F (2014)
Min Temperature 32 °F 11 °F 0 °F (2006)
Degree Days  
Heating Degree Days 23 42  
Month to date heating degree days 1079  
Since 1 July heating degree days 6163  
Cooling Degree Days 0 0  
Month to date cooling degree days 0  
Year to date cooling degree days 0  
Moisture  
Dew Point 21 °F    
Average Humidity 49    
Maximum Humidity 85    
Minimum Humidity 27    
Precipitation  
Precipitation 0.00 in 0.03 in 0.18 in (1998)
Month to date precipitation 0.70  
Year to date precipitation 1.58  
Sea Level Pressure  
Sea Level Pressure 30.05 in    
Wind  
Wind Speed 9 mph (WSW)    
Max Wind Speed 22 mph    
Max Gust Speed 28 mph    
Visibility 10 miles    
Events      
T = Trace of Precipitation, MM = Missing Value Source: NWS Daily Summary

Daily Weather History Graph

Daily Weather History Graph

Search for Another Location

Airport or City:

Trip Planner

Search our weather history database for the weather conditions in past years. The results will help you decide how hot, cold, wet, or windy it might be!

Date:

Astronomy

Feb. 24, 2014 Rise Set
Actual Time 6:51 AM MST 5:55 PM MST
Civil Twilight 6:23 AM MST 6:23 PM MST
Nautical Twilight 5:51 AM MST 6:54 PM MST
Astronomical Twilight 5:20 AM MST 7:26 PM MST
Moon 2:54 AM MST (2/24) 12:57 PM MST (2/24)
Length of Visible Light 11h 59m
Length of Day
11h 03m
Waning Crescent, 27% of the Moon is Illuminated
Feb 24
Waning Crescent
Mar 1
New
Mar 8
First Quarter
Mar 16
Full
Mar 23
Last Quarter

Hourly Weather History & Observations

Time (MST) Temp. Windchill Dew Point Humidity Pressure Visibility Wind Dir Wind Speed Gust Speed Precip Events Conditions
12:15 AM 35.6 °F 29.9 °F 21.4 °F 56% 30.02 in 10.0 mi SSW 6.9 mph - N/A   Clear
12:35 AM 36.9 °F 29.1 °F 19.4 °F 49% 30.02 in 10.0 mi SSW 11.5 mph - N/A   Clear
12:55 AM 36.1 °F 31.4 °F 19.6 °F 51% 30.02 in 10.0 mi WSW 5.8 mph - N/A   Clear
1:15 AM 34.2 °F 27.5 °F 20.8 °F 58% 30.02 in 10.0 mi WSW 8.1 mph - N/A   Clear
1:35 AM 35.2 °F 28.8 °F 20.1 °F 54% 30.02 in 10.0 mi West 8.1 mph - N/A   Clear
1:55 AM 35.2 °F 27.6 °F 19.6 °F 53% 30.02 in 10.0 mi WSW 10.4 mph - N/A   Clear
2:15 AM 34.0 °F 26.0 °F 20.7 °F 58% 30.02 in 10.0 mi West 10.4 mph - N/A   Clear
2:35 AM 33.1 °F 26.1 °F 21.0 °F 61% 30.01 in 10.0 mi West 8.1 mph - N/A   Clear
2:55 AM 33.6 °F 24.6 °F 20.3 °F 58% 30.02 in 10.0 mi West 12.7 mph 17.3 mph N/A   Clear
3:15 AM 32.9 °F 24.1 °F 21.0 °F 62% 30.02 in 10.0 mi West 11.5 mph - N/A   Mostly Cloudy
3:35 AM 33.3 °F 25.1 °F 19.9 °F 58% 30.01 in 10.0 mi WSW 10.4 mph - N/A   Overcast
3:55 AM 33.8 °F 25.8 °F 19.8 °F 56% 30.01 in 10.0 mi West 10.4 mph - N/A   Scattered Clouds
4:15 AM 33.3 °F 25.1 °F 19.9 °F 58% 30.01 in 10.0 mi West 10.4 mph - N/A   Clear
4:35 AM 34.0 °F 27.2 °F 19.6 °F 56% 30.01 in 10.0 mi West 8.1 mph - N/A   Scattered Clouds
4:55 AM 36.3 °F 29.5 °F 18.0 °F 47% 30.02 in 10.0 mi WSW 9.2 mph - N/A   Scattered Clouds
5:15 AM 36.7 °F 29.9 °F 17.8 °F 46% 30.02 in 10.0 mi WSW 9.2 mph 16.1 mph N/A   Scattered Clouds
5:35 AM 37.0 °F 30.4 °F 16.9 °F 44% 30.02 in 10.0 mi WSW 9.2 mph 18.4 mph N/A   Scattered Clouds
5:55 AM 37.0 °F 31.0 °F 17.8 °F 46% 30.02 in 10.0 mi WSW 8.1 mph - N/A   Mostly Cloudy
6:15 AM 37.8 °F 33.3 °F 16.7 °F 42% 30.02 in 10.0 mi WSW 5.8 mph 17.3 mph N/A   Overcast
6:35 AM 36.1 °F 33.5 °F 18.1 °F 48% 30.03 in 10.0 mi WNW 3.5 mph - N/A   Overcast
6:55 AM 36.1 °F 30.6 °F 18.1 °F 48% 30.03 in 10.0 mi WSW 6.9 mph - N/A   Overcast
7:15 AM 35.4 °F 29.7 °F 18.3 °F 50% 30.05 in 10.0 mi WNW 6.9 mph - N/A   Overcast
7:35 AM 38.3 °F 33.9 °F 16.7 °F 42% 30.05 in 10.0 mi West 5.8 mph - N/A   Overcast
7:55 AM 38.7 °F 35.2 °F 16.7 °F 41% 30.06 in 10.0 mi West 4.6 mph - N/A   Overcast
8:15 AM 37.4 °F 33.8 °F 18.3 °F 46% 30.07 in 10.0 mi WNW 4.6 mph - N/A   Overcast
8:35 AM 39.2 °F - 16.9 °F 40% 30.07 in 10.0 mi Calm Calm - N/A   Overcast
8:55 AM 40.5 °F 38.4 °F 17.8 °F 40% 30.07 in 10.0 mi West 3.5 mph - N/A   Overcast
9:15 AM 42.6 °F 37.2 °F 16.2 °F 34% 30.07 in 10.0 mi SSW 9.2 mph - N/A   Overcast
9:35 AM 43.7 °F 36.6 °F 15.6 °F 32% 30.06 in 10.0 mi SSW 15.0 mph 20.7 mph N/A   Overcast
9:55 AM 46.2 °F 40.8 °F 16.9 °F 31% 30.06 in 10.0 mi South 11.5 mph 18.4 mph N/A   Scattered Clouds
10:15 AM 46.8 °F - 17.2 °F 31% 30.06 in 10.0 mi SSW 13.8 mph 21.9 mph N/A   Scattered Clouds
10:35 AM 46.4 °F 39.5 °F 18.1 °F 32% 30.07 in 10.0 mi SSW 17.3 mph 24.2 mph N/A   Clear
10:55 AM 47.8 °F - 19.6 °F 33% 30.07 in 10.0 mi SSW 15.0 mph 23.0 mph N/A   Clear
11:15 AM 49.8 °F - 19.6 °F 30% 30.07 in 10.0 mi SSW 16.1 mph 24.2 mph N/A   Scattered Clouds
11:35 AM 48.6 °F - 18.0 °F 30% 30.07 in 10.0 mi WSW 16.1 mph 27.6 mph N/A   Mostly Cloudy
11:55 AM 48.4 °F - 18.5 °F 31% 30.07 in 10.0 mi WSW 12.7 mph 23.0 mph N/A   Mostly Cloudy
12:15 PM 48.0 °F - 18.3 °F 31% 30.06 in 10.0 mi WSW 19.6 mph 25.3 mph N/A   Scattered Clouds
12:35 PM 48.4 °F - 18.1 °F 30% 30.06 in 10.0 mi WSW 17.3 mph 21.9 mph N/A   Scattered Clouds
12:55 PM 51.3 °F - 18.9 °F 28% 30.04 in 10.0 mi SW 16.1 mph 23.0 mph N/A   Scattered Clouds
1:15 PM 51.8 °F - 19.0 °F 28% 30.04 in 10.0 mi SW 16.1 mph 24.2 mph N/A   Scattered Clouds
1:35 PM 52.3 °F - 19.2 °F 27% 30.03 in 10.0 mi SW 13.8 mph 24.2 mph N/A   Scattered Clouds
1:55 PM 51.8 °F - 18.9 °F 27% 30.03 in 10.0 mi SSW 19.6 mph 25.3 mph N/A   Scattered Clouds
2:15 PM 50.0 °F - 20.7 °F 32% 30.03 in 10.0 mi SSW 16.1 mph 24.2 mph N/A   Scattered Clouds
2:35 PM 49.8 °F - 21.6 °F 33% 30.03 in 10.0 mi SSW 15.0 mph - N/A   Mostly Cloudy
2:55 PM 49.3 °F - 19.6 °F 31% 30.03 in 10.0 mi SW 13.8 mph 26.5 mph N/A   Mostly Cloudy
3:15 PM 52.3 °F - 20.3 °F 28% 30.03 in 10.0 mi SW 21.9 mph 26.5 mph N/A   Overcast
3:35 PM 51.4 °F - 21.0 °F 30% 30.03 in 10.0 mi SW 18.4 mph 26.5 mph N/A   Scattered Clouds
3:55 PM 50.0 °F - 21.6 °F 33% 30.04 in 10.0 mi SSW 20.7 mph 25.3 mph N/A   Clear
4:15 PM 49.5 °F - 20.8 °F 32% 30.04 in 10.0 mi SSW 20.7 mph 24.2 mph N/A   Clear
4:35 PM 47.8 °F - 21.2 °F 35% 30.04 in 10.0 mi South 18.4 mph 24.2 mph N/A   Clear
4:55 PM 46.8 °F - 21.0 °F 36% 30.04 in 10.0 mi SSW 17.3 mph 25.3 mph N/A   Clear
5:15 PM 45.5 °F 40.3 °F 22.5 °F 40% 30.05 in 10.0 mi SSW 10.4 mph 19.6 mph N/A   Clear
5:35 PM 43.9 °F 37.5 °F 22.6 °F 43% 30.06 in 10.0 mi SSW 12.7 mph 19.6 mph N/A   Clear
5:55 PM 42.6 °F 37.8 °F 23.4 °F 47% 30.06 in 10.0 mi SW 8.1 mph - N/A   Clear
6:15 PM 40.1 °F 36.9 °F 23.7 °F 52% 30.06 in 10.0 mi WSW 4.6 mph - N/A   Clear
6:35 PM 39.4 °F 34.5 °F 23.7 °F 54% 30.07 in 10.0 mi WSW 6.9 mph - N/A   Clear
6:55 PM 37.8 °F - 23.7 °F 57% 30.08 in 10.0 mi Calm Calm - N/A   Clear
7:15 PM 37.9 °F 35.5 °F 23.0 °F 55% 30.09 in 10.0 mi SW 3.5 mph - N/A   Clear
7:35 PM 34.7 °F 31.8 °F 25.7 °F 70% 30.09 in 10.0 mi NNW 3.5 mph - N/A   Clear
7:55 PM 33.8 °F - 26.1 °F 73% 30.08 in 10.0 mi Calm Calm - N/A   Clear
8:15 PM 32.9 °F - 27.7 °F 81% 30.09 in 10.0 mi Calm Calm - N/A   Clear
8:35 PM 32.7 °F - 27.5 °F 81% 30.09 in 10.0 mi Calm Calm - N/A   Clear
8:55 PM 32.4 °F - 28.4 °F 85% 30.09 in 10.0 mi Calm Calm - N/A   Clear
9:15 PM 34.3 °F 28.4 °F 26.8 °F 74% 30.09 in 10.0 mi NE 6.9 mph - N/A   Clear
9:35 PM 34.7 °F 28.8 °F 26.4 °F 72% 30.09 in 10.0 mi NE 6.9 mph - N/A   Scattered Clouds
9:55 PM 34.7 °F 30.6 °F 27.0 °F 73% 30.09 in 10.0 mi ENE 4.6 mph - N/A   Overcast
10:15 PM 34.2 °F - 27.0 °F 75% 30.09 in 10.0 mi Calm Calm - N/A   Overcast
10:35 PM 34.2 °F - 27.7 °F 77% 30.09 in 10.0 mi Calm Calm - N/A   Overcast
10:55 PM 33.8 °F - 27.5 °F 78% 30.09 in 10.0 mi Calm Calm - N/A   Overcast
11:15 PM 33.1 °F - 27.7 °F 81% 30.09 in 10.0 mi Calm Calm - N/A   Overcast
11:35 PM 33.1 °F 30.0 °F 28.2 °F 82% 30.08 in 10.0 mi NE 3.5 mph - N/A   Overcast
11:55 PM 33.3 °F - 27.3 °F 79% 30.08 in 10.0 mi Calm Calm - N/A   Mostly Cloudy